Location: Newark
(43.0000°N, 1.6781°W)
Time: 22:36:08
(UTC+00:00)

Vanguard 1 Rocket - Pass Details

Date: 24 April 2021
Orbit: 652 x 4224 km, 34.3° (Epoch: 10 May)

Event Time Altitude Azimuth Distance (km) Brightness Sun altitude
Rises 15:04:41 0° 260° (W) 3,576 11.3 41.2°
Reaches altitude 10° 15:07:51 10° 249° (WSW) 2,338 10.7 40.6°
Maximum altitude 15:12:05 27° 190° (S) 1,268 8.9 39.9°
Drops below altitude 10° 15:15:50 10° 131° (SE) 2,054 9.1 39.3°
Sets 15:18:25 0° 118° (ESE) 3,049 9.8 38.8°
